Location: Unspecified
(0.0000°N, 0.0000°E)
Time: 01:28:26
(UTC+02:00)

Meteor PRIRODA - Visible Passes

Search period start: 20 April 2018 00:00
Search period end: 30 April 2018 00:00
Orbit: 492 x 514 km, 97.5° (Epoch: 19 April)

Date Brightness Start Highest point End Pass type
(mag) Time Alt. Az. Time Alt. Az. Time Alt. Az.
20 Apr 5.9 06:18:57 10° N 06:19:47 16° N 06:19:47 16° N visible
21 Apr 6.2 06:00:17 10° NNE 06:01:03 16° NNE 06:01:03 16° NNE visible
22 Apr 6.7 05:42:01 10° NE 05:42:18 12° NE 05:42:18 12° NE visible
24 Apr 5.7 06:38:33 10° NNW 06:39:32 16° NNW 06:39:32 16° NNW visible
25 Apr 5.6 06:19:28 10° N 06:20:47 21° N 06:20:47 21° N visible
26 Apr 5.9 06:00:47 10° NNE 06:02:01 20° NNE 06:02:01 20° NNE visible
27 Apr 6.5 05:42:30 10° NE 05:43:15 15° NE 05:43:15 15° NE visible
28 Apr 5.9 06:58:55 10° NW 06:59:14 11° NW 06:59:14 11° NW visible
29 Apr 5.5 06:39:03 10° NNW 06:40:27 18° NW 06:40:27 18° NW visible
